Flight Track Log - Related Links

Times and Time Zones

All times are in EDT time to prevent confusion due to time zone crossing. See the UAL3835 flight status page for this flight to view local times or setup timezone preferences in your user account.

Time Position Orientation Groundspeed Altitude Reporting Facility
EDT Latitude Longitude Course Direction KTS MPH feet Rate Location/Type
Tue 06:56:44 AM 40.7167 -74.1333 14° North 172 198 1,800  Level New York TRACON
Tue 06:57:39 AM 40.7667 -74.1167 14° North 258 297 3,300 2,105 Climbing New York TRACON
Tue 06:58:38 AM 40.7833 -74.2167 282° West 264 304 5,800 2,420 Climbing New York TRACON
Tue 06:59:38 AM 40.8000 -74.3167 282° West 283 326 8,100 2,300 Climbing New York TRACON
Tue 07:00:38 AM 40.8000 -74.4167 270° West 286 329 10,400 1,670 Climbing New York TRACON
Tue 07:01:33 AM 40.8000 -74.5167 270° West 317 365 11,300 950 Climbing New York TRACON
Tue 07:02:38 AM 40.8000 -74.6500 270° West 357 411 12,300 914 Climbing New York TRACON
Tue 07:03:18 AM 40.8033 -74.7350 273° West 366 421 12,900 1,200 Climbing New York Center
Tue 07:04:18 AM 40.8028 -74.8722 270° West 366 421 14,300 1,271 Climbing New York Center
Tue 07:05:16 AM 40.8028 -74.9956 270° West 376 433 15,400 1,169 Climbing New York Center
Tue 07:06:16 AM 40.8019 -75.1297 270° West 376 433 16,600 1,300 Climbing New York Center
Tue 07:07:16 AM 40.7797 -75.2819 259° West 376 433 18,000 1,140 Climbing New York Center
Tue 07:08:17 AM 40.7558 -75.4089 256° West 376 433 18,900 1,041 Climbing New York Center
Tue 07:09:17 AM 40.7092 -75.5372 244° Southwest 377 434 20,100 1,200 Climbing New York Center
Tue 07:10:17 AM 40.6625 -75.6600 243° Southwest 383 441 21,300 1,140 Climbing New York Center
Tue 07:11:18 AM 40.6153 -75.7906 245° Southwest 393 452 22,400 1,068 Climbing New York Center
Tue 07:12:15 AM 40.5683 -75.9156 244° Southwest 398 458 23,400 1,017 Climbing New York Center
Tue 07:13:16 AM 40.5169 -76.0372 241° Southwest 403 464 24,400 1,140 Climbing New York Center
Tue 07:14:16 AM 40.4675 -76.1644 243° Southwest 403 464 25,700 1,240 Climbing New York Center
Tue 07:15:17 AM 40.4222 -76.2892 245° Southwest 393 452 26,900 1,140 Climbing New York Center
Tue 07:16:17 AM 40.3786 -76.4164 246° West 393 452 28,000 545 Climbing New York Center
Tue 07:17:18 AM 40.3431 -76.5469 250° West 393 452 28,000 -198 Level New York Center
Tue 07:18:18 AM 40.3069 -76.6883 252° West 399 459 27,600 -850 Descending New York Center
Tue 07:19:18 AM 40.2706 -76.8319 252° West 411 473 26,300 -821 Descending New York Center
Tue 07:20:15 AM 40.2339 -76.9758 252° West 423 487 26,000 -150 Descending New York Center
Tue 07:21:18 AM 40.1947 -77.1217 251° West 423 487 26,000  Level New York Center
Tue 07:22:16 AM 40.1558 -77.2650 250° West 417 480 26,000 -35 Level New York Center
Tue 07:24:09 AM 40.0847 -77.5383 251° West 420 483 25,900 -763 Descending Cleveland Center
Tue 07:25:09 AM 40.0469 -77.6839 251° West 420 483 23,800 -1,950 Descending Cleveland Center
Tue 07:26:09 AM 40.0086 -77.8183 250° West 414 476 22,000 -900 Descending Cleveland Center
Tue 07:27:09 AM 39.9764 -77.9497 252° West 401 461 22,000  Level Cleveland Center
Tue 07:28:09 AM 39.9753 -78.0906 269° West 381 438 22,000  Level Cleveland Center
Tue 07:29:09 AM 39.9803 -78.2339 273° West 394 453 22,000  Level Cleveland Center
Tue 07:30:09 AM 39.9919 -78.3989 275° West 407 468 22,000  Level Cleveland Center
Tue 07:31:09 AM 40.0156 -78.5419 282° West 412 474 22,000  Level Cleveland Center
Tue 07:32:09 AM 40.0367 -78.6850 281° West 407 468 22,000 -100 Level Cleveland Center
Tue 07:33:09 AM 40.0600 -78.8281 282° West 407 468 21,800 -1,250 Descending Cleveland Center
Tue 07:34:09 AM 40.0808 -78.9714 281° West 407 468 19,500 -2,300 Descending Cleveland Center
Tue 07:35:09 AM 40.1014 -79.1067 281° West 402 463 17,200 -2,350 Descending Cleveland Center
Tue 07:36:09 AM 40.1217 -79.2336 282° West 389 448 14,800 -2,250 Descending Cleveland Center
Tue 07:37:09 AM 40.1419 -79.3528 283° West 375 432 12,700 -2,100 Descending Cleveland Center
Tue 07:38:09 AM 40.1619 -79.4800 282° West 370 426 10,600 -1,350 Descending Cleveland Center
Tue 07:39:09 AM 40.1819 -79.6183 281° West 370 426 10,000 -300 Descending Cleveland Center
Tue 07:40:09 AM 40.2183 -79.7294 293° West 358 412 10,000  Level Cleveland Center
Tue 07:41:09 AM 40.2628 -79.8267 301° West 340 391 10,000  Level Cleveland Center
Tue 07:42:09 AM 40.3133 -79.9458 299° West 346 398 10,000 -350 Level Cleveland Center
Tue 07:43:09 AM 40.3494 -80.0356 298° West 313 360 9,300 -1,050 Descending Cleveland Center
Tue 07:44:09 AM 40.3811 -80.1225 296° West 278 320 7,900 -1,400 Descending Cleveland Center
Tue 07:45:09 AM 40.3939 -80.2206 280° West 268 308 6,500 -1,500 Descending Cleveland Center
Tue 07:46:09 AM 40.3983 -80.3158 274° West 274 315 4,900 -1,200 Descending Cleveland Center
Tue 07:47:09 AM 40.4028 -80.4003 274° West 259 298 4,100 -800 Descending Cleveland Center
Tue 07:49:00 AM 40.4915 -80.2329 55° Northeast  Level Estimated
Tue 07:56:00 AM 40.4915 -80.2329 339° North  Level Estimated

Login

Don't have an account? Register now (free) for customized features, flight alerts, and more!